Погода в Озёрске

Россия / Челябинская область     55°45′47″N   60°42′27″E
темп.,
°C
ветер,
м/с
пор.,
м/с
влажн.,
%
обл.,
%
осадки,
мм/ч
давл.,
гПа
погр.,
м
13 июня, вс
вс1323:00+13юв227596 0.0 102228
02:00+12ююв2277100 0.0 102318
05:00+13ююв127233 0.0 102343
08:00+16ююв3962100 0.0 1023392
11:00+20ююв484949 0.0 1023806
14:00+24ю46375 0.0 10221670
17:00+23ююв464197 0.0 10221795
20:00+19ююв2762100 0.0 1021154
14 июня, пн
пн1423:00+16ю236772 0.0 102258
02:00+13ююз2471100 0.0 102266
05:00+14ююз2668100 0.0 1022120
08:00+19ююз4115715 0.0 1022342
11:00+25ююз58345 0.0 10211059
14:00+28ю673078 0.0 10202510
17:00+27ююз564020 0.0 10191850
20:00+22ююз3105883 0.0 1019293
15 июня, вт
вт1523:00+18ююз3117194 0.0 1019212
02:00+16зюз246885 0.0 101966
05:00+16юз2267100 0.0 101822
08:00+21ююз2455100 0.0 1018169
11:00+27юз343399 0.0 10171252
14:00+29ю452999 0.0 10152678
17:00+24ю385099 0.0 1015271
20:00+22ююз256212 0.0 1014129
16 июня, ср
ср1623:00+19з347499 0.3 101455
02:00+16юз008591 0.1 101411
05:00+16юз2389100 0.1 101447
08:00+21ю236725 0.0 1014285
11:00+27ю23425 0.0 10131075
14:00+26ю3548100 0.0 1011954
17:00+21всв476749 0.3 1012219
20:00+22ююз4106399 0.1 1011331
17 июня, чт
чт1723:00+19с1269100 0.3 101148
02:00+17зюз1179100 0.0 100919
05:00+16ююз367493 0.0 1007108
08:00+21юз3862100 0.1 1005378
11:00+22ююв1265100 0.1 100375
14:00+20с117498 0.2 100245
17:00+15ссз71391100 5.6 1004786
20:00+16сз278224 0.1 1006450